800  
AXUS43 KGID 181602  
MISGRI  
 
GID CWA HOURLY WEATHER ROUNDUP  
NATIONAL WEATHER SERVICE HASTINGS NE  
1000 AM CST THU DEC 18 2014  
 
NOTE: "FAIR" INDICATES FEW OR NO CLOUDS BELOW 12,000 FEET WITH NO  
SIGNIFICANT WEATHER AND/OR OBSTRUCTIONS TO VISIBILITY.  
   
..SOUTH CENTRAL NEBRASKA
 
 
 
CITY SKY/WX TMP DP RH WIND PRES REMARKS  
GRAND ISLAND CLOUDY 24 22 91 S5 30.20S WCI 18  
HASTINGS CLOUDY 25 22 88 S5 30.18R WCI 19  
KEARNEY CLOUDY 25 21 86 SE6 30.17S WCI 18  
ORD CLOUDY 24 21 88 SE6 30.16R FOG WCI 17  
YORK FLURRIES 25 N/A N/A SE5 30.21R WCI 19  
AURORA CLOUDY 26 24 93 S5 30.20R WCI 20  
LEXINGTON CLOUDY 26 24 91 S3 30.15R  
HOLDREGE CLOUDY 25 23 91 S3 30.16R FOG  
HEBRON CLOUDY 27 24 89 SE3 30.22S FOG  
   
..NEBRASKA PANHANDLE
 
 
 
CITY SKY/WX TMP DP RH WIND PRES REMARKS  
CHADRON SUNNY 10 6 84 SW8 30.05S WCI -2  
ALLIANCE MOSUNNY 6 3 87 SW5 30.03R WCI -3  
SCOTTSBLUFF CLOUDY 7 4 87 W6 30.06S FOG WCI -3  
SIDNEY MOSUNNY 21 17 84 W10 30.04R WCI 10  
   
..WESTERN AND NORTH CENTRAL NEBRASKA
 
 
 
CITY SKY/WX TMP DP RH WIND PRES REMARKS  
VALENTINE CLOUDY 26 22 84 SW5 30.08R WCI 20  
AINSWORTH CLOUDY 25 24 96 CALM 30.09R  
ONEILL CLOUDY 24 23 96 S3 30.16S  
BROKEN BOW CLOUDY 25 24 96 S8 30.13R FOG WCI 16  
IMPERIAL CLOUDY 25 23 92 W7 30.10R FOG WCI 17  
NORTH PLATTE CLOUDY 26 23 88 SW7 30.11S WCI 18  
MCCOOK CLOUDY 24 22 91 SW5 30.14R WCI 18  
   
..EASTERN NEBRASKA
 
 
 
CITY SKY/WX TMP DP RH WIND PRES REMARKS  
NORFOLK CLOUDY 27 22 81 S7 30.21R WCI 19  
SO SIOUX CITY CLOUDY 27 21 78 SE9 30.26R WCI 18  
TEKAMAH CLOUDY 28 23 81 SE8 30.26R WCI 20  
COLUMBUS CLOUDY 25 19 80 SE6 30.23S WCI 18  
ALBION CLOUDY 24 21 86 S5 30.19R WCI 18  
OMAHA EPPLEY LGT SNOW 27 24 89 SE6 30.27R FOG WCI 20  
OFFUTT AFB LGT SNOW 28 24 87 E7 30.25S FOG WCI 21  
MILLARD CLOUDY 28 24 84 SE5 30.25R WCI 23  
LINCOLN CLOUDY 28 25 88 S5 30.26R FOG WCI 23  
NEBRASKA CITY LGT SNOW 28 28 99 E3 30.25R  
BEATRICE CLOUDY 28 25 91 CALM 30.24R  
FALLS CITY LGT SNOW 28 25 88 E5 30.26R FOG WCI 23  
   
..NORTHERN KANSAS
 
 
 
CITY SKY/WX TMP DP RH WIND PRES REMARKS  
GOODLAND FOG 23 22 96 SW5 30.10R VSB 1/4 WCI 17  
HILL CITY CLOUDY 27 25 92 CALM 30.18R  
NORTON CLOUDY 28 25 86 CALM 30.15S  
PHILLIPSBURG CLOUDY 28 28 100 CALM 30.19S FOG  
SMITH CENTER MOSUNNY 25 23 93 SE3 30.20S  
BELOIT CLOUDY 27 25 93 CALM 30.21S  
HAYS CLOUDY 27 18 69 CALM 30.18S  
RUSSELL CLOUDY 26 25 96 NE3 30.18R FOG  
CONCORDIA CLOUDY 26 25 96 E5 30.22R FOG WCI 20  
SALINA CLOUDY 29 26 89 NE5 30.23R WCI 24  
TOPEKA CLOUDY 32 28 85 N5 30.25R WCI 27  
 
CLICK HERE TO GO TO PREVIOUS BULLETINS.

The Nexlab NE Page
The Nexlab KS Page Main Text Page